Theta_e
356 356 359 362 362 364 365 365 367 366 366 366 366 367 367 367 366 366 367 367 367 367 366 366 366 365 365 365 365 364 364 364 365 364 364 364 363 363 363 363 363 363 363 364 363 362 363 362 362 362 362 361 361 361 360 361 361 360 360 360 360 361 360 360 359 360 360 360 361 361 359 360 361 361 360 359 358 357 357 357 358 356 357 358 360
355 357 360 361 361 364 364 365 366 367 365 365 367 367 368 367 366 367 367 367 366 366 365 366 365 365 365 365 365 364 364 364 364 363 363 363 364 363 363 363 363 363 363 363 362 362 362 361 361 361 361 361 360 361 361 360 361 360 360 360 360 361 360 359 359 361 360 360 360 360 360 360 360 359 359 358 358 357 358 357 357 356 356 358 358
357 357 360 360 360 364 366 367 366 366 366 366 367 367 367 368 367 367 367 366 366 365 366 366 365 365 365 365 364 364 364 364 363 364 364 364 363 364 364 363 363 363 363 362 361 361 361 361 360 360 360 360 361 362 361 360 360 360 360 359 360 360 361 361 359 358 358 359 359 359 360 360 359 359 358 357 360 360 360 358 358 359 354 359 359
356 357 359 361 363 364 365 366 366 366 367 366 367 367 368 368 367 367 366 366 366 366 366 365 365 365 365 364 364 364 365 365 365 364 364 363 363 363 363 363 362 361 361 361 361 361 361 361 360 360 360 360 360 361 361 361 361 360 360 359 359 358 359 359 358 359 360 359 359 358 358 355 356 357 357 357 358 358 358 358 359 360 360 360 360
357 358 361 362 363 364 365 366 366 367 366 365 367 367 368 367 367 366 366 366 366 366 365 365 365 365 365 364 364 364 364 364 364 363 363 362 362 363 363 363 362 361 361 361 361 361 360 360 361 360 360 360 360 361 361 360 360 360 360 359 358 358 358 359 360 360 360 359 358 356 356 354 354 357 357 357 358 358 359 358 358 359 358 360 359
357 359 361 361 362 364 366 366 366 367 366 366 367 368 367 367 366 366 366 366 366 365 365 365 365 365 364 364 364 363 363 363 362 362 362 362 362 361 362 363 362 362 362 362 362 362 362 361 360 360 360 360 360 361 361 361 360 360 360 358 359 356 357 360 360 359 360 360 359 360 356 359 353 353 358 358 359 359 358 358 359 361 360 359 359
357 359 360 360 362 363 365 366 365 367 367 366 367 368 367 367 366 366 366 366 366 365 364 364 364 364 363 363 363 363 363 362 362 362 362 362 362 361 361 362 362 362 362 361 362 362 362 362 362 361 361 360 360 360 360 361 361 360 360 360 359 357 358 359 359 360 358 357 359 355 356 356 356 355 358 359 358 358 358 357 357 358 359 359 358
356 358 358 359 362 363 365 366 366 367 367 367 368 367 367 366 367 367 366 366 365 365 364 364 364 363 363 363 363 363 362 362 362 362 362 362 362 361 361 361 361 362 361 362 362 361 362 362 362 362 362 361 361 361 360 360 360 361 361 360 359 359 359 360 360 359 358 357 358 354 355 359 356 355 359 359 358 358 357 357 356 357 358 358 358
355 356 359 360 362 362 364 366 366 367 368 368 367 367 367 366 366 366 366 365 365 364 364 363 363 363 363 362 362 362 362 362 362 362 362 361 362 362 362 362 362 363 362 362 362 363 362 362 363 362 362 361 361 361 360 360 361 361 361 361 359 358 359 359 359 358 356 358 358 357 359 355 355 356 358 358 359 358 357 356 356 356 357 357 357
354 356 359 361 361 362 364 366 367 367 368 368 368 367 367 366 366 366 366 365 364 364 364 364 364 364 363 363 362 362 362 362 362 362 362 363 362 364 364 363 364 364 363 363 362 362 362 362 362 362 361 361 361 361 360 361 361 361 361 360 358 358 358 360 359 358 356 356 356 356 357 357 356 356 358 358 358 358 359 361 358 356 356 357 358
356 357 359 360 360 363 365 367 367 367 368 368 368 368 367 367 366 366 366 365 365 365 364 364 363 363 362 362 363 362 362 362 362 362 363 363 363 363 363 363 363 363 363 362 362 362 361 362 362 361 361 361 361 361 362 362 361 361 362 362 360 359 360 359 357 355 355 356 357 357 355 359 356 356 359 360 359 359 359 359 359 359 359 358 358
356 358 360 360 363 364 365 366 367 368 368 368 368 368 367 367 367 366 366 365 365 364 364 364 363 363 364 363 363 363 363 364 363 363 363 363 363 363 363 363 363 363 363 363 363 363 363 362 362 362 361 361 361 362 362 362 362 362 361 361 361 360 360 358 353 354 357 354 356 355 354 355 357 357 359 359 359 359 359 359 358 359 358 358 359
356 357 360 362 362 365 365 366 367 368 368 368 368 368 368 367 366 366 365 365 365 365 364 363 363 363 363 363 364 364 364 364 364 364 364 364 364 363 363 363 363 363 363 364 362 362 362 362 362 362 362 362 362 362 362 362 362 362 362 360 361 361 359 360 354 353 358 356 356 358 356 356 356 359 359 359 359 359 358 357 357 359 358 358 359
353 356 361 362 362 366 365 366 367 368 368 368 368 368 368 367 366 365 365 365 365 365 364 363 363 363 363 364 364 364 364 364 364 364 364 364 364 364 364 364 363 363 363 362 362 362 363 363 363 362 362 363 362 362 362 363 363 363 362 361 361 363 362 357 357 356 356 356 358 358 356 357 357 360 359 358 358 359 359 358 358 358 358 358 358
355 357 358 360 362 362 365 366 367 368 367 368 368 368 368 367 366 365 365 366 366 365 365 364 364 364 364 364 364 365 365 365 365 364 364 364 364 364 364 364 363 363 363 363 363 363 363 363 363 363 362 362 362 362 363 362 363 363 362 361 361 362 361 358 359 356 356 357 356 355 355 356 359 359 359 358 358 357 357 357 358 359 358 358 358
357 356 358 361 362 363 364 368 367 368 367 368 369 368 367 367 366 365 365 366 367 366 365 365 365 364 364 364 365 365 365 365 364 364 364 364 364 364 364 364 364 364 364 364 364 364 363 362 363 363 363 363 363 363 363 363 362 362 362 361 362 361 362 359 357 358 359 356 357 358 355 356 359 359 359 358 357 357 357 357 357 359 359 358 358
355 357 357 358 361 361 362 364 366 368 368 369 369 368 367 367 367 366 366 366 367 366 365 365 364 364 365 364 364 365 366 365 364 365 364 364 364 364 364 364 365 365 365 365 364 364 364 364 363 364 364 364 363 363 363 363 362 362 361 362 361 361 363 359 355 357 358 357 357 356 355 357 360 358 359 358 357 356 357 357 358 357 357 358 358
356 356 356 359 360 359 360 361 365 366 366 367 368 368 368 367 367 367 367 367 366 366 365 365 364 363 362 363 364 365 366 366 366 365 365 364 364 364 364 364 364 365 365 365 364 364 364 365 365 364 364 364 364 363 363 362 362 362 362 360 362 362 361 360 356 356 356 358 356 358 356 358 360 358 358 357 357 357 357 357 357 357 358 358 359
354 356 357 358 357 358 358 362 363 363 365 365 367 366 367 367 366 367 368 367 366 365 365 364 364 363 362 362 362 364 365 366 365 364 364 363 363 364 364 364 364 364 364 364 363 363 364 365 365 365 364 365 364 364 363 362 362 362 362 363 360 363 363 360 356 356 358 355 356 356 356 360 358 358 357 356 357 356 356 356 357 357 357 358 358
354 354 356 357 356 356 358 358 359 361 362 363 365 366 367 367 368 368 368 368 366 365 364 364 363 363 362 361 361 361 364 362 364 363 364 365 364 363 364 363 363 363 363 362 362 362 363 363 364 364 364 364 363 362 362 363 363 362 362 361 363 363 364 360 357 356 355 354 356 355 359 360 358 358 357 356 356 357 356 356 356 356 357 357 358
352 353 355 355 354 356 357 356 358 359 358 361 364 366 366 368 367 368 368 368 366 365 365 364 363 362 362 362 361 360 365 365 364 362 364 363 364 364 363 363 363 363 363 362 361 362 362 363 363 364 364 362 363 362 363 362 364 361 363 362 362 354 354 361 355 356 356 356 356 357 359 360 358 358 357 356 356 357 356 356 357 356 356 356 357
349 350 353 354 353 355 355 356 356 357 358 360 363 364 367 365 366 367 366 367 366 365 365 362 363 363 360 363 365 365 366 369 366 365 365 364 363 364 364 363 363 363 362 363 362 363 362 364 365 365 365 363 363 367 365 365 365 365 361 364 362 357 356 358 361 354 355 355 357 359 361 359 358 358 358 357 357 357 356 357 357 356 356 355 355
346 349 350 351 355 355 354 354 353 356 356 359 360 364 363 364 364 364 365 366 366 364 363 363 363 363 365 359 368 364 363 367 367 366 366 364 362 364 364 364 363 362 362 362 364 363 364 364 366 365 364 363 363 367 363 365 365 364 365 361 362 356 351 358 359 357 354 354 356 361 360 359 359 359 359 357 357 357 356 357 357 356 356 355 355
347 347 348 351 353 353 354 353 354 356 356 356 358 361 360 362 361 361 362 364 365 364 365 365 364 363 360 362 363 363 363 366 368 367 366 363 364 364 365 365 364 364 363 363 362 363 364 365 365 363 361 362 362 360 361 362 361 363 364 363 360 356 353 355 356 356 355 356 356 361 361 360 359 359 359 358 357 357 356 356 356 355 355 355 354
349 348 348 351 352 352 351 354 355 356 356 355 356 357 359 359 359 359 359 361 362 362 363 365 366 367 363 363 358 360 362 366 366 365 366 368 365 365 363 364 365 362 364 364 365 362 364 364 364 365 363 365 361 361 363 359 360 360 358 355 349 353 348 355 356 355 355 356 358 361 360 360 359 359 358 358 357 357 356 356 356 355 355 355 355
351 348 347 352 351 351 350 352 353 357 357 356 355 358 358 356 356 356 358 357 359 359 362 366 363 364 364 356 356 358 361 365 362 365 366 367 365 366 365 365 364 365 365 368 363 366 362 361 363 361 359 363 359 359 358 360 359 359 361 358 362 354 348 354 355 355 355 356 359 362 360 360 360 359 359 358 358 357 357 356 356 356 356 355 355
349 349 352 352 353 351 352 353 352 357 358 358 357 358 354 355 356 356 356 354 356 356 358 361 363 367 364 365 355 352 357 358 363 365 363 366 365 363 364 364 365 365 365 364 360 361 362 365 357 360 362 358 355 359 361 359 361 355 356 353 353 355 353 352 355 356 356 356 359 361 360 360 360 360 360 360 359 359 358 357 357 357 356 356 355
352 350 351 352 354 353 355 354 355 356 359 359 359 357 355 352 354 359 357 356 356 355 355 361 363 364 368 367 364 359 355 357 362 364 362 360 361 363 363 362 361 362 365 361 359 361 362 363 357 360 361 357 353 358 359 359 358 362 359 359 357 359 356 350 354 356 356 356 358 361 360 360 360 360 360 360 360 360 359 359 358 358 357 356 356
349 350 352 353 355 356 357 355 356 360 358 357 355 359 357 355 354 355 356 361 357 356 358 360 364 364 363 368 365 357 353 357 361 362 364 362 364 361 362 361 363 363 364 364 360 359 360 357 353 357 359 363 361 360 362 358 362 362 357 357 350 358 350 344 352 354 355 357 358 360 361 360 360 360 360 360 360 359 359 359 359 358 357 357 357
350 351 351 354 356 355 356 356 357 359 359 356 358 358 359 357 359 359 361 364 359 360 363 362 359 361 360 365 359 362 361 356 363 363 360 364 361 361 361 359 362 366 361 360 365 359 358 356 352 358 362 359 357 366 364 355 354 355 360 353 347 344 352 342 347 353 356 357 358 360 362 361 360 360 360 360 360 359 360 359 360 359 358 358 357
350 352 354 355 356 356 355 358 359 362 359 356 358 359 360 359 360 360 360 359 359 364 364 360 358 359 364 367 368 372 365 357 363 360 360 361 362 361 361 366 364 363 366 361 362 359 357 356 358 359 364 367 367 365 361 359 358 351 356 353 352 349 347 349 348 352 353 354 357 360 362 363 361 360 360 360 359 359 359 359 359 359 359 358 357
348 349 353 355 357 354 356 357 358 361 360 357 361 359 360 359 362 361 359 361 364 360 361 359 365 366 367 367 372 366 372 366 364 363 362 365 364 362 361 362 362 366 366 363 360 362 360 364 367 372 363 368 364 363 363 361 356 354 356 351 352 355 351 349 342 348 351 353 356 358 361 362 362 360 361 360 359 358 359 358 358 358 359 357 358
350 353 354 355 353 353 354 357 360 362 360 356 357 359 359 357 359 360 361 362 360 361 360 362 364 368 369 368 370 370 372 368 369 366 366 366 362 366 364 363 365 368 365 364 364 369 367 365 365 363 370 366 362 360 360 357 359 357 355 350 357 350 349 348 345 345 350 352 355 357 359 361 361 361 361 360 360 359 359 358 359 358 358 358 358
351 353 353 353 353 354 355 356 360 358 361 356 358 358 359 358 359 359 363 362 358 357 361 365 367 368 367 370 368 371 368 371 370 367 370 364 365 366 364 363 366 368 370 373 370 366 366 362 361 367 362 366 361 360 361 355 358 358 358 353 354 358 346 343 342 345 347 349 351 354 355 357 359 359 360 360 360 359 359 359 359 358 358 358 357
352 353 353 354 355 354 355 355 359 357 360 359 359 360 360 357 358 359 359 361 360 358 357 362 364 363 363 367 370 369 370 371 371 371 367 367 363 362 363 364 368 368 371 372 366 365 364 363 363 363 362 364 361 360 356 358 352 354 355 357 352 356 353 335 345 347 347 350 351 350 353 355 357 359 359 359 360 361 360 359 359 358 358 357 357
351 354 354 356 354 355 357 354 356 358 360 361 360 361 361 362 360 361 360 363 360 358 358 356 358 360 360 365 369 368 369 369 370 371 371 366 365 367 367 367 368 365 368 370 370 366 364 363 364 362 364 355 359 359 358 356 354 348 356 356 351 356 351 344 346 344 346 350 353 353 352 355 357 358 360 358 358 359 360 359 359 359 358 358 358
352 353 354 357 356 355 357 353 355 356 359 357 362 364 364 364 363 359 354 362 358 358 359 357 357 358 359 359 366 369 368 369 370 369 368 366 368 366 367 364 368 371 371 369 368 368 365 357 371 366 366 366 358 352 351 355 351 349 348 346 346 355 344 346 345 346 349 351 350 356 354 354 359 360 359 357 358 359 360 359 359 360 359 359 358
352 353 355 355 354 355 355 354 355 357 360 361 363 363 363 365 362 360 363 359 357 356 357 359 358 357 359 362 365 367 368 368 369 370 369 365 365 364 363 367 366 368 369 370 370 366 365 363 366 371 364 366 362 357 351 353 345 347 349 341 344 350 349 348 350 358 351 348 351 353 356 356 356 355 354 355 355 356 356 359 360 360 359 359 358
350 352 353 356 356 356 357 359 357 358 358 362 365 364 364 365 361 362 359 362 363 359 357 358 357 357 353 365 366 366 367 368 368 370 368 366 363 363 363 365 362 369 371 365 364 363 365 364 363 363 364 365 365 359 356 351 354 345 343 342 349 357 352 349 352 353 355 347 348 351 351 352 352 354 356 357 355 357 356 358 358 358 357 360 359
350 352 355 356 357 358 357 360 359 357 361 362 362 359 358 358 355 357 357 359 360 360 359 356 357 358 356 365 366 368 368 368 368 368 369 368 365 362 362 362 365 369 368 359 363 365 363 363 362 358 354 360 368 361 358 357 343 347 350 343 352 347 349 351 349 349 353 356 354 361 345 348 348 349 353 353 354 355 357 358 359 359 358 359 359
352 353 354 354 355 355 355 356 358 359 359 358 357 355 353 355 356 354 353 354 359 359 357 356 355 353 359 361 367 366 369 368 369 368 367 368 371 368 368 365 366 366 366 362 362 361 364 362 367 368 359 359 359 358 352 353 346 349 357 345 355 351 352 355 354 345 347 352 347 348 358 343 342 343 347 350 353 355 357 356 357 357 359 358 358
351 351 351 352 354 353 354 355 357 357 357 356 356 355 357 355 355 354 353 354 358 358 356 359 356 355 367 367 366 365 368 368 369 369 369 367 369 366 367 367 368 368 368 366 362 364 364 363 363 365 364 358 358 351 352 348 347 341 343 342 346 351 354 344 342 343 345 351 351 357 346 339 340 343 346 350 350 353 355 356 357 357 358 358 357
349 349 352 353 354 354 355 356 355 356 356 356 357 356 358 359 357 356 355 354 358 359 356 357 359 353 359 366 366 367 368 367 368 368 367 366 368 366 366 370 368 367 366 365 365 363 365 363 363 359 357 357 357 358 358 353 347 345 351 344 337 336 348 356 345 343 341 345 348 350 346 340 341 344 347 350 348 347 349 353 354 356 356 356 356
350 350 350 352 353 355 357 356 356 357 357 357 359 359 360 363 364 362 360 358 356 360 362 361 360 356 353 359 368 367 367 365 365 365 366 367 371 369 370 368 372 368 368 366 364 362 365 366 363 359 359 351 349 351 352 351 355 342 338 339 340 336 332 337 342 342 342 342 341 340 351 343 343 346 348 347 342 348 351 354 354 358 356 355 355
349 349 350 350 350 353 358 357 357 358 358 359 360 360 361 362 363 365 363 362 363 358 358 356 357 358 354 357 362 367 367 364 365 366 365 367 372 370 370 368 370 367 369 368 366 364 365 366 364 361 358 355 351 354 355 349 354 358 354 344 340 335 335 334 334 351 341 340 341 341 348 349 341 350 341 343 343 345 345 348 354 353 351 354 354
350 351 351 352 353 354 359 359 358 359 358 360 360 361 360 358 358 357 354 354 355 353 351 352 352 353 349 351 360 361 363 363 366 366 364 367 370 371 371 367 370 371 367 367 366 367 360 360 362 360 358 360 362 351 344 363 348 358 355 354 349 342 343 337 339 332 353 348 345 342 345 349 342 352 354 349 346 345 346 347 353 356 353 351 352
351 353 353 354 356 356 359 360 359 359 360 361 361 362 360 360 358 356 356 354 353 354 358 355 355 356 356 356 361 362 366 364 363 365 365 367 372 372 371 370 369 369 369 368 366 362 361 363 362 361 361 363 363 357 356 342 355 354 349 344 347 350 347 349 341 339 335 347 347 338 338 341 341 340 344 340 342 343 345 346 344 345 352 350 350
352 353 353 355 356 357 359 360 360 360 360 362 361 362 360 360 359 357 357 356 352 355 359 360 361 362 359 357 359 361 366 365 363 365 365 366 371 370 371 370 368 367 370 369 365 362 364 366 364 364 364 364 361 356 355 346 345 344 349 348 349 353 345 345 342 340 339 336 339 341 339 339 340 339 339 340 339 341 344 348 346 347 352 350 352
353 353 354 355 357 358 359 360 360 360 361 363 361 361 362 361 360 359 358 359 358 358 360 361 360 362 362 360 362 361 365 366 366 364 366 365 369 372 373 370 367 367 369 367 366 364 366 364 362 364 363 365 362 362 360 355 341 343 349 348 350 350 345 345 348 349 345 334 334 334 339 342 343 342 344 340 341 343 344 345 346 345 347 347 354
354 356 354 354 356 358 359 360 360 361 361 363 362 362 362 362 360 359 359 359 360 359 359 360 362 364 362 362 361 364 363 364 365 366 366 366 368 370 370 371 367 363 366 365 365 365 365 366 364 362 362 360 363 362 360 359 355 355 345 348 348 353 347 343 342 340 339 348 342 332 336 337 335 345 347 345 343 340 340 345 347 344 345 347 348
354 354 353 354 355 357 359 359 360 361 362 362 362 361 361 362 361 361 360 360 360 360 360 361 361 362 361 362 361 365 364 363 363 365 365 365 366 368 365 368 368 366 368 366 364 362 365 366 361 364 364 362 362 360 360 362 360 357 350 354 346 348 347 343 342 339 341 342 339 334 332 334 333 337 342 341 349 350 346 344 341 338 345 345 346
Wind_Speed
9 12 10 11 9 14 15 16 15 16 17 18 17 17 17 16 16 16 16 16 15 15 15 15 15 15 16 15 15 15 15 14 15 15 15 16 15 15 15 15 15 15 14 14 14 14 14 15 15 15 14 14 14 13 13 13 12 12 12 12 13 13 12 12 13 13 12 12 12 11 11 11 12 11 11 10 9 7 7 11 11 7 7 10 15
13 10 9 11 10 12 15 16 16 16 17 18 18 17 17 17 17 16 16 15 15 15 15 15 15 15 15 15 15 15 14 14 15 15 15 15 15 15 15 15 15 14 14 14 14 14 14 14 14 14 14 13 14 13 12 12 12 12 12 12 12 12 12 12 12 13 13 12 11 12 12 12 12 11 10 10 11 12 12 10 11 7 6 13 15
12 11 11 13 15 13 14 16 16 16 17 18 18 18 17 17 17 16 16 15 15 15 15 15 15 15 15 15 15 15 15 15 15 15 15 15 15 15 14 14 14 14 14 13 13 13 14 14 13 13 13 13 13 12 11 11 11 12 12 12 12 12 12 12 12 12 13 12 11 12 13 13 12 11 10 11 12 13 11 12 13 13 8 15 15
16 13 12 15 15 12 15 16 16 16 17 18 18 17 17 17 17 16 16 15 15 15 15 15 15 15 14 14 14 15 15 15 15 15 15 15 15 14 14 14 14 13 13 13 13 13 13 13 12 12 12 12 12 11 10 10 10 11 11 11 11 11 12 12 12 11 9 8 9 6 4 6 8 11 11 12 13 13 13 13 14 14 15 14 15
15 13 12 12 13 12 15 15 15 16 17 18 18 17 17 17 16 16 16 15 15 15 15 15 15 14 14 14 14 14 15 15 15 15 15 15 14 15 14 14 14 13 13 13 12 12 12 12 11 11 11 11 11 11 10 10 10 10 11 11 11 11 11 11 11 10 9 8 8 5 2 6 5 11 11 12 13 13 13 13 14 15 15 14 14
14 13 12 12 13 12 14 15 16 17 17 18 18 17 17 17 16 16 15 15 15 15 15 14 14 14 14 14 14 14 14 14 14 14 14 14 14 14 14 14 14 14 13 13 12 12 11 11 10 10 10 10 10 10 10 10 9 9 10 11 10 11 12 11 9 9 8 9 8 2 4 2 5 7 12 12 12 13 13 13 14 14 13 14 14
16 12 12 13 11 12 12 15 18 18 17 18 18 17 17 16 16 15 15 16 15 15 14 14 14 14 14 14 14 14 14 14 14 14 13 14 14 14 14 14 13 13 13 13 13 12 12 11 10 9 8 9 9 9 8 9 9 9 9 10 10 10 11 9 9 8 8 6 2 5 3 5 6 6 11 11 12 13 13 12 13 13 13 11 13
14 11 12 13 11 12 12 15 18 18 18 18 17 17 16 16 15 15 15 15 15 14 14 14 13 13 13 13 13 13 13 13 13 13 13 13 13 13 13 13 13 12 13 13 12 12 12 11 11 10 9 8 8 8 8 8 9 9 9 8 9 10 10 9 9 9 9 4 4 4 4 1 6 5 9 11 12 12 11 11 11 13 13 13 14
15 14 12 12 11 14 11 15 18 18 18 17 17 17 16 16 15 15 15 15 14 14 14 13 13 13 13 13 13 13 13 12 12 12 12 12 12 12 12 12 11 11 11 12 11 12 11 11 10 9 9 8 8 8 8 8 9 8 8 7 8 9 10 9 8 8 5 3 4 2 1 5 7 6 8 11 11 9 9 10 9 11 12 12 12
16 14 13 10 11 13 11 14 18 18 17 17 17 16 16 16 15 15 15 15 14 14 14 13 13 13 13 13 13 13 12 12 12 12 11 12 11 11 11 10 11 11 10 10 10 10 11 10 10 9 9 8 8 8 7 8 9 8 7 7 8 8 8 8 8 7 4 2 3 3 4 8 6 5 9 10 9 10 11 10 8 8 10 13 12
17 14 12 12 15 13 13 15 18 18 17 17 16 16 16 16 15 15 15 14 14 14 13 13 13 13 13 13 13 12 12 12 12 11 11 10 10 10 10 10 10 10 10 9 10 10 10 10 9 9 9 8 8 7 7 8 8 8 7 6 8 7 6 6 9 3 2 3 5 5 7 10 6 4 10 11 10 10 11 11 11 12 12 12 12
17 15 13 12 14 15 14 18 18 18 17 17 16 16 16 16 15 15 14 14 14 14 14 13 13 13 13 13 12 12 12 12 11 11 10 10 10 10 10 10 9 9 10 9 10 10 9 9 9 9 9 8 8 8 7 7 7 7 6 5 6 7 4 9 6 3 2 6 5 4 6 7 6 7 11 11 11 10 10 10 10 11 11 11 12
16 15 14 13 12 14 17 19 18 17 18 16 16 16 16 16 15 15 14 13 13 13 13 13 13 12 12 12 12 12 12 11 11 11 10 10 9 9 9 9 9 9 9 9 9 9 9 9 9 9 9 8 8 7 7 6 6 7 5 4 3 6 5 5 6 5 2 7 6 3 6 6 6 9 11 12 11 11 12 11 8 12 12 12 12
17 16 14 14 13 17 19 18 18 17 17 16 16 16 16 16 15 14 13 13 13 13 13 13 12 12 12 12 12 11 11 11 11 10 10 10 10 10 9 9 9 9 9 9 9 9 9 9 9 8 8 8 8 7 7 6 6 6 6 3 3 4 6 7 9 5 6 5 5 5 6 5 5 8 10 10 11 11 11 11 12 12 12 12 13
18 18 16 15 15 14 20 18 18 17 17 16 16 16 16 16 14 14 13 13 13 13 12 12 12 12 11 11 11 11 11 10 10 10 10 10 10 9 9 9 8 8 8 9 9 9 9 9 8 8 8 7 7 7 6 5 5 5 5 4 3 4 7 4 4 4 5 5 5 7 6 5 8 8 10 10 10 11 11 12 12 13 12 12 13
19 19 17 15 15 14 13 17 18 17 16 16 16 16 16 15 14 14 13 12 12 12 12 12 11 11 11 11 11 11 10 10 10 10 9 10 10 10 9 9 8 8 9 9 9 9 9 8 8 8 7 7 6 6 5 5 4 4 3 3 3 6 8 5 2 4 4 5 4 4 7 6 8 9 10 10 10 10 10 11 12 13 12 12 12
19 18 18 17 16 14 13 13 15 18 16 16 16 16 16 15 14 14 13 12 12 12 11 11 10 10 10 10 10 10 10 10 10 10 9 9 9 9 9 8 8 8 8 8 8 8 8 7 7 7 7 6 6 5 5 4 3 2 1 1 4 5 7 8 3 3 4 5 3 4 6 5 7 9 10 11 10 10 10 10 11 12 12 12 12
20 18 17 17 16 15 14 13 14 12 12 14 16 16 15 14 14 13 13 12 12 11 11 10 10 10 9 9 9 9 10 9 9 9 9 8 8 7 8 8 8 8 8 8 8 7 7 7 6 6 5 5 5 5 5 4 2 1 0 1 2 6 5 6 4 4 4 6 5 5 5 8 9 9 9 10 9 10 10 10 10 11 11 11 11
18 17 17 17 16 15 15 13 12 12 12 10 9 12 15 14 14 13 13 12 11 11 10 10 10 9 8 8 8 8 8 9 8 8 8 8 8 8 7 7 7 7 7 7 7 6 5 5 5 5 4 4 4 4 4 4 2 1 1 1 1 3 3 3 4 4 4 4 4 5 6 10 9 9 9 10 9 9 9 9 10 10 10 11 10
15 16 16 15 15 15 14 12 11 12 10 10 11 11 13 14 13 13 13 12 12 11 10 10 9 9 8 7 7 6 7 6 8 7 8 7 6 7 6 6 6 6 6 6 6 5 4 3 3 3 3 3 2 2 2 3 4 2 1 1 2 3 1 2 4 5 3 4 5 5 8 9 11 11 10 10 10 9 9 10 9 10 10 10 10
14 16 13 13 16 15 14 11 12 13 12 12 10 10 11 13 11 12 12 12 11 11 10 10 9 8 7 6 6 5 4 4 4 5 7 6 8 7 6 6 5 5 5 5 5 4 4 3 3 3 3 2 1 1 3 4 4 4 4 3 2 6 6 2 4 3 3 3 6 5 9 9 11 12 11 10 10 9 8 10 9 10 10 9 10
12 13 14 14 13 13 14 13 11 12 11 9 9 8 9 11 9 9 8 9 10 10 8 7 7 5 7 5 4 1 1 3 2 6 4 6 6 7 5 6 6 5 5 5 4 4 4 5 5 5 4 4 2 1 3 4 7 6 5 6 2 6 3 2 1 4 5 3 6 7 10 10 11 11 12 11 10 10 9 9 9 9 9 9 9
14 12 12 16 12 12 12 13 13 10 12 10 9 9 10 7 9 8 7 9 8 8 6 6 5 5 4 5 3 3 3 3 2 3 4 5 6 6 6 5 5 6 5 5 5 5 6 6 7 5 4 4 3 2 2 3 3 9 7 4 3 6 5 4 1 2 4 5 5 10 11 11 11 11 11 11 11 10 9 10 8 8 9 9 8
14 14 13 13 14 11 12 12 12 11 10 8 9 9 8 7 7 7 6 6 6 6 6 5 4 5 5 4 5 4 4 3 6 6 6 3 4 5 6 6 6 6 6 4 5 5 6 7 6 6 3 2 0 2 3 2 4 3 5 3 3 5 9 5 2 3 3 7 6 12 12 11 11 11 11 11 11 10 10 10 10 8 8 8 8
11 13 12 12 14 13 13 11 11 10 10 8 9 9 8 7 7 6 6 6 6 5 5 5 3 4 4 4 6 6 5 4 4 3 2 3 3 3 3 3 3 3 5 2 2 3 4 3 3 3 2 2 2 3 2 2 5 7 7 6 5 4 8 8 5 4 6 5 7 12 12 11 11 11 11 10 10 10 10 10 9 9 8 8 8
12 12 13 13 14 13 13 12 12 10 9 8 9 8 9 7 7 7 6 6 6 5 4 4 4 5 5 4 7 6 5 3 3 3 2 1 2 2 1 1 1 2 2 1 1 2 3 2 1 2 2 2 2 2 4 5 2 2 2 2 1 4 6 8 6 6 6 6 8 12 12 11 11 11 11 10 9 9 10 10 9 9 8 9 8
11 13 10 11 12 14 12 13 13 9 10 8 7 8 7 6 7 6 6 5 5 5 5 5 5 4 5 3 1 4 6 3 3 3 4 3 1 1 2 1 1 2 2 1 2 2 3 3 3 3 2 3 4 4 3 1 4 2 0 2 2 2 1 10 7 6 6 7 8 13 12 11 10 11 11 11 11 10 9 10 9 9 8 8 9
8 12 12 12 13 16 12 13 11 10 8 9 7 7 6 8 7 6 6 6 5 5 5 5 6 5 4 2 2 3 6 5 4 5 3 3 2 2 2 0 1 1 2 0 2 1 2 2 3 5 4 5 1 2 1 1 2 0 2 1 1 1 2 8 8 7 7 7 8 11 12 11 10 10 11 11 10 10 10 10 9 9 9 8 8
14 14 12 12 14 13 14 15 13 11 9 9 9 7 7 6 7 6 5 5 4 5 5 6 5 4 5 3 5 2 3 4 3 4 4 3 3 3 2 2 2 1 1 1 2 1 2 2 3 5 7 2 1 2 1 2 2 1 0 1 5 1 3 7 10 8 7 7 6 9 12 12 10 10 10 10 10 10 10 9 9 9 9 9 8
13 14 14 13 13 15 14 16 15 12 10 11 7 7 6 6 6 6 5 3 4 4 4 3 6 5 4 4 4 3 2 6 3 3 4 3 4 4 2 1 2 2 3 3 1 2 2 3 6 5 1 2 3 1 1 1 4 2 1 2 3 3 4 4 10 8 8 7 6 7 13 12 12 11 10 10 10 10 10 10 9 9 9 9 9
16 15 12 12 12 15 14 14 14 11 10 10 7 9 8 6 5 5 5 6 4 4 2 4 4 4 4 5 2 0 5 7 5 3 3 3 3 3 3 1 2 1 1 1 3 1 3 3 8 5 3 2 0 1 2 1 2 3 2 1 2 4 3 2 11 9 9 7 6 6 8 12 11 10 10 9 9 9 10 10 10 9 9 9 9
17 16 13 12 14 16 15 14 14 11 10 11 7 8 7 6 6 6 6 5 5 4 5 4 4 2 4 6 3 2 3 5 6 2 3 3 3 4 3 2 2 3 3 3 5 6 9 7 2 1 0 1 2 2 3 3 2 2 2 3 2 2 2 2 10 10 9 7 6 5 6 7 10 10 10 10 9 8 9 10 9 9 9 8 8
12 15 14 16 17 17 15 15 13 12 11 12 10 7 7 7 6 6 5 5 4 4 5 3 4 3 6 5 4 3 1 5 4 6 5 3 4 2 2 2 1 1 2 4 6 2 1 2 1 2 1 1 2 2 2 2 2 2 1 2 1 1 3 1 7 9 10 9 7 5 5 6 6 9 11 10 10 9 9 9 8 8 8 8 8
12 11 15 16 15 13 13 13 13 15 12 11 9 8 7 7 6 6 5 5 4 5 4 4 3 4 6 4 5 3 3 2 4 3 3 3 3 2 1 2 1 2 2 2 1 1 2 2 2 1 3 2 2 1 1 2 2 1 1 2 1 1 4 2 6 6 7 9 7 6 5 5 5 4 6 10 10 10 10 9 9 8 8 8 7
12 14 16 16 15 14 13 13 13 14 13 10 10 8 8 7 6 6 6 5 5 5 5 4 3 4 5 5 5 4 4 3 3 3 2 3 3 3 2 2 2 2 1 1 2 1 2 2 3 2 2 2 1 1 2 2 0 2 2 2 2 2 2 7 6 4 6 4 6 6 6 5 5 5 5 5 8 10 10 10 10 8 8 7 7
15 13 13 13 14 14 13 14 16 14 13 10 10 8 8 6 6 6 5 7 5 6 5 6 6 4 5 6 5 5 4 4 3 4 3 3 2 3 2 2 2 2 2 1 1 2 2 2 1 1 2 2 3 1 3 2 1 1 0 1 3 1 3 4 5 6 5 4 3 4 5 4 5 4 6 5 5 7 11 11 11 10 10 9 8
15 15 14 13 13 14 12 16 18 15 13 12 10 8 7 6 6 7 7 7 6 6 5 5 5 5 4 6 6 6 5 4 4 4 4 4 3 3 2 2 1 2 3 2 2 2 1 1 2 2 1 1 3 1 1 3 3 3 3 5 2 2 6 6 6 5 5 4 6 2 1 5 5 6 4 5 5 5 9 11 12 12 12 11 10
15 16 16 14 14 13 13 13 14 16 11 10 9 8 7 6 5 5 5 7 8 7 5 4 5 4 5 5 8 6 6 5 5 4 4 4 4 3 2 2 1 2 3 3 1 0 2 2 1 2 1 1 2 1 2 2 1 3 1 4 5 3 3 5 5 3 4 4 6 3 2 2 4 5 4 5 6 5 5 9 12 11 10 10 9
14 17 15 14 13 11 10 10 12 13 12 9 8 8 7 5 5 6 6 6 5 4 5 4 4 5 6 5 9 7 6 6 5 5 5 3 5 4 3 3 4 4 2 1 1 1 2 2 2 1 3 2 0 2 2 4 1 4 3 3 3 2 4 3 4 4 2 4 6 7 7 6 6 6 4 3 4 6 6 5 5 4 5 10 9
13 13 13 12 11 11 11 9 10 12 10 8 8 7 8 7 7 6 6 5 5 5 4 5 5 4 5 6 9 6 6 6 5 5 5 4 4 6 5 5 4 3 1 2 2 2 0 2 0 5 2 3 1 2 3 1 4 3 2 4 1 4 4 4 4 3 2 1 2 2 5 6 5 7 9 6 5 5 7 6 6 6 5 7 9
13 14 16 15 14 13 13 12 12 12 11 10 9 9 9 8 7 9 8 8 6 6 6 5 6 6 6 6 9 6 6 6 5 5 5 5 3 5 5 5 4 3 3 3 3 1 2 2 1 0 4 2 1 3 0 2 4 2 2 4 1 1 3 1 1 4 3 2 4 4 1 4 5 6 5 5 5 4 6 6 5 5 5 5 6
14 15 16 17 15 14 14 13 11 12 13 12 10 9 8 8 8 8 8 8 7 6 6 4 5 6 5 6 7 7 6 6 5 5 5 5 5 4 4 4 4 4 4 3 2 3 4 3 3 1 2 2 2 4 2 3 1 3 3 2 2 2 3 3 3 3 4 2 2 2 4 6 6 4 4 4 4 7 5 4 4 6 5 5 5
18 18 14 15 15 12 13 13 11 11 12 12 10 9 8 8 8 7 8 7 7 7 7 6 5 6 6 6 7 7 7 6 6 6 5 6 5 6 5 4 5 5 4 3 4 4 4 4 4 3 3 3 2 1 0 1 2 3 2 2 3 2 2 1 3 5 6 3 2 2 2 7 7 5 5 3 3 4 4 3 4 6 6 5 4
15 16 17 17 14 11 12 13 12 11 10 11 10 10 9 7 7 7 7 6 7 7 6 6 5 6 7 7 6 7 7 6 7 7 6 5 6 6 6 5 4 5 5 4 4 4 3 1 3 4 3 3 3 3 2 4 2 6 2 2 2 3 4 2 3 3 4 5 5 4 1 3 4 4 3 3 5 5 4 3 3 2 6 5 5
17 18 18 18 15 16 13 15 12 11 11 11 11 9 9 8 7 6 7 6 5 7 6 6 6 6 6 7 7 8 7 7 7 7 6 6 6 6 5 5 6 5 5 5 5 4 3 4 4 3 4 3 2 1 1 2 1 1 2 1 2 2 2 4 3 1 3 3 4 4 2 2 4 5 6 5 5 4 4 4 3 3 4 7 5
17 17 19 19 16 15 13 14 12 10 12 13 13 10 9 9 9 8 8 8 7 8 9 8 8 8 10 8 8 9 9 8 7 8 7 6 6 7 5 6 5 5 5 5 4 3 4 5 5 3 3 3 1 3 4 1 2 2 2 3 2 2 1 4 3 2 3 2 3 4 3 1 3 2 3 3 5 4 4 4 3 2 3 4 4
19 18 18 17 16 15 14 14 13 11 12 12 14 10 10 9 10 10 8 9 8 7 6 7 7 6 7 6 8 9 8 9 9 8 7 7 6 6 7 6 6 6 6 5 5 5 6 7 4 3 3 3 1 1 2 3 3 1 1 3 4 3 2 1 3 3 1 3 2 4 5 5 5 4 3 4 6 6 4 5 5 4 2 4 3
20 19 19 18 17 17 16 15 12 12 11 12 14 12 11 10 10 10 8 8 9 7 7 7 6 5 7 8 7 9 9 9 8 8 8 7 7 7 7 6 7 6 6 6 6 6 5 3 4 4 3 3 3 2 2 4 5 2 2 2 2 1 6 2 5 3 2 2 2 4 5 5 6 6 6 7 7 7 6 4 6 4 3 3 2
20 20 19 17 17 17 16 15 14 13 12 14 14 14 11 11 11 10 9 7 8 7 6 6 6 6 6 7 6 9 9 9 9 8 8 8 7 8 6 6 6 6 6 5 5 5 5 5 5 4 4 3 3 3 2 3 5 4 2 2 3 1 3 2 2 2 1 4 3 4 3 3 3 4 3 3 6 6 5 6 5 6 5 4 3
19 19 19 18 18 16 17 17 16 14 13 14 15 15 14 12 11 11 11 9 8 7 7 7 7 7 7 8 8 7 10 9 9 8 8 9 8 8 8 8 7 7 7 7 6 5 6 5 5 4 4 4 3 3 3 1 2 1 5 4 1 2 3 3 4 3 3 0 1 4 3 3 4 2 2 2 5 6 7 5 3 5 5 5 3
17 19 19 18 19 18 18 19 18 15 15 15 16 17 15 13 12 12 13 11 10 9 8 8 8 8 8 7 8 6 8 9 9 8 8 10 9 9 9 9 7 7 6 6 6 6 6 5 5 5 5 5 4 4 3 2 2 1 3 4 5 3 2 3 3 4 3 1 2 4 5 7 6 3 3 4 2 0 5 5 5 4 7 5 5
Wind_Direction
140 137 141 147 140 132 127 128 127 127 123 122 119 115 113 111 108 105 103 101 101 99 97 97 95 91 89 90 91 91 93 95 94 93 92 93 92 94 96 97 98 96 95 92 90 89 88 86 85 84 83 81 77 73 75 77 76 77 77 80 82 84 88 87 88 89 86 82 78 80 83 81 80 77 76 73 74 80 86 80 84 86 89 91 89
144 139 138 139 138 131 131 130 129 127 125 124 120 118 115 112 109 107 105 104 103 101 100 98 95 93 93 93 94 95 95 94 94 93 93 93 94 94 94 95 96 95 92 89 88 88 89 88 86 85 84 82 79 75 73 76 78 78 77 78 82 86 87 86 86 87 89 88 86 86 83 80 77 78 75 74 67 70 75 85 102 95 73 89 91
134 145 142 130 148 143 136 131 130 129 126 124 122 119 114 110 108 108 108 106 104 103 100 97 95 96 97 97 97 97 95 93 90 89 91 92 92 93 92 91 91 93 92 90 88 87 85 85 86 87 86 84 81 79 77 75 78 78 80 80 82 87 88 88 86 89 86 79 85 89 87 83 80 79 79 80 80 78 78 84 79 83 89 101 112
140 141 134 132 138 133 135 131 130 128 127 126 123 117 113 111 111 110 109 106 105 101 98 97 98 99 98 98 97 96 94 93 91 90 90 91 91 92 93 94 93 94 93 91 89 85 84 82 83 85 85 83 82 86 84 79 76 77 78 80 82 86 90 91 90 84 77 72 61 61 63 87 85 82 83 84 88 92 92 89 90 91 97 98 101
134 133 133 138 134 140 132 132 130 130 130 127 121 117 114 113 113 111 109 106 103 101 100 100 100 100 100 100 98 95 94 94 93 92 90 89 89 89 89 89 86 85 86 85 84 81 79 82 83 86 85 85 87 88 87 80 75 74 77 80 82 83 89 89 88 87 85 72 68 67 346 92 84 84 88 88 88 87 87 86 89 91 97 100 100
134 133 139 138 133 132 133 135 136 135 130 125 121 118 115 114 114 112 108 105 104 103 103 103 102 102 102 100 97 94 92 91 90 89 89 89 89 90 90 91 91 90 89 86 82 82 83 86 85 87 92 91 91 90 87 83 78 76 78 80 81 83 85 85 88 91 84 82 78 63 80 80 92 89 89 90 88 86 86 88 89 93 95 98 101
135 136 137 137 132 135 137 138 137 132 128 125 122 117 117 116 115 111 108 106 105 105 105 105 105 103 101 98 96 94 92 92 91 90 90 92 93 89 86 87 87 85 84 86 89 88 87 88 89 87 88 94 94 93 90 87 84 82 83 86 85 86 92 95 87 81 92 89 45 69 18 77 77 82 86 85 89 87 87 90 95 97 100 101 102
136 137 139 137 133 134 137 142 135 130 129 126 120 119 119 117 114 111 109 108 107 106 106 106 105 102 99 98 96 95 94 93 92 90 90 89 88 89 91 90 91 93 94 89 87 87 87 86 88 89 91 93 95 96 94 91 89 87 89 94 96 93 94 92 88 78 79 78 75 60 60 65 94 87 88 83 82 80 87 90 93 98 101 104 108
140 140 137 132 134 138 138 142 135 130 128 124 122 122 120 117 115 113 112 109 108 108 108 107 103 101 98 96 96 95 94 91 90 90 90 89 88 88 89 88 89 91 93 95 94 93 91 89 89 89 93 97 100 99 97 95 93 91 90 96 97 98 100 95 86 81 79 53 60 75 107 92 90 89 87 84 77 76 79 91 88 99 104 99 92
141 139 133 130 136 140 146 144 135 131 127 125 125 124 121 118 116 115 113 111 111 112 109 106 103 101 100 97 96 94 93 92 90 89 90 91 91 91 92 92 92 92 93 93 93 92 94 96 93 93 96 97 98 97 96 100 101 100 99 94 91 98 105 102 102 83 84 94 80 73 83 77 73 82 88 86 86 89 83 85 90 94 91 93 92
141 137 131 132 138 145 145 145 133 130 128 128 127 124 122 119 118 116 114 115 116 114 110 107 104 103 102 99 96 96 94 92 91 91 91 92 92 91 95 96 95 93 93 94 94 93 92 93 94 96 99 99 98 98 99 99 99 98 100 96 97 89 102 94 74 73 95 65 86 91 81 86 82 81 90 92 90 85 82 87 94 97 98 97 96
138 134 132 131 139 148 148 142 134 131 132 131 128 126 122 119 119 118 119 121 119 114 109 106 103 102 100 98 97 95 92 92 91 90 90 93 95 97 97 98 99 97 96 95 93 94 94 90 91 92 92 96 94 93 94 94 96 98 94 94 93 119 111 105 102 118 165 98 54 95 113 97 95 94 95 99 99 94 89 84 95 101 100 105 106
136 134 130 132 142 151 148 139 135 134 134 131 129 127 122 122 121 122 123 122 117 111 107 106 104 102 100 98 96 92 92 91 91 90 89 93 95 96 97 98 98 96 94 96 97 95 92 91 90 95 100 104 101 100 97 95 96 102 102 92 91 95 111 133 134 154 135 111 124 103 86 88 98 105 99 101 100 97 98 109 111 104 103 104 103
138 138 136 138 141 149 140 138 136 136 134 133 131 127 124 124 125 126 126 122 116 112 111 110 107 103 100 98 95 91 88 89 90 90 90 89 90 90 91 93 96 96 96 99 101 101 97 96 93 95 99 103 112 111 107 102 99 98 102 92 71 46 42 135 127 121 110 107 92 100 105 103 106 107 105 106 109 107 106 102 101 102 106 109 108
140 141 142 139 141 142 140 138 138 137 136 135 132 128 127 126 127 129 126 122 117 115 113 108 106 103 101 98 94 93 90 89 87 88 88 90 91 91 93 96 99 104 107 106 106 102 101 100 101 101 103 107 110 116 110 105 104 104 107 110 89 55 57 42 18 103 111 108 108 112 97 96 110 112 111 111 109 106 104 103 101 99 105 107 109
143 143 139 139 140 140 142 140 140 139 138 136 133 129 128 128 130 130 127 122 119 117 113 109 108 107 102 98 98 96 95 90 86 84 87 89 91 95 100 104 108 108 108 109 107 107 106 102 103 103 106 110 112 114 116 109 104 113 120 118 117 96 100 84 46 47 83 94 106 107 111 115 122 118 118 117 111 106 103 102 101 103 105 111 113
146 141 141 142 141 146 143 145 142 140 139 138 134 131 130 131 133 132 128 124 123 119 115 115 113 110 106 101 101 102 100 94 89 84 84 90 92 97 102 103 105 104 106 110 109 108 106 105 104 108 106 109 114 114 115 115 120 123 120 104 95 95 113 116 87 111 116 121 131 124 115 123 132 124 121 117 115 111 109 105 104 104 106 109 110
142 146 143 143 147 148 145 143 141 142 139 138 135 132 131 135 135 133 130 128 125 122 121 120 118 113 110 110 109 107 103 101 95 90 85 87 92 92 96 100 103 102 102 105 110 110 110 109 109 109 110 112 118 120 121 128 146 178 75 29 57 85 105 128 135 109 120 131 116 116 113 126 139 133 126 124 121 120 114 109 106 104 105 107 111
143 146 144 147 148 147 145 143 147 144 143 140 137 134 135 138 139 136 134 133 130 128 128 127 122 123 119 119 117 109 104 106 107 100 94 87 99 99 98 102 103 106 106 106 114 115 111 114 116 116 124 127 128 135 140 145 165 203 270 346 13 90 115 115 125 128 129 117 114 101 114 138 138 134 133 129 128 121 117 114 106 103 104 108 108
148 148 149 149 149 147 146 151 150 148 152 144 137 137 140 142 142 140 139 137 137 137 137 134 134 132 134 132 127 120 127 120 125 114 105 98 85 95 110 110 107 111 113 117 115 120 120 133 149 144 125 130 132 156 191 187 162 215 224 268 325 12 300 142 121 122 139 125 125 108 132 150 138 138 137 133 130 127 124 116 111 105 104 107 110
150 151 153 153 150 145 151 149 153 156 152 143 139 138 144 146 144 144 145 146 145 146 144 142 142 144 145 158 159 153 145 132 168 119 129 105 113 120 121 116 119 113 120 125 123 129 150 167 195 175 156 130 153 260 249 251 227 184 210 198 185 49 342 316 135 131 117 117 107 118 145 150 146 142 140 140 135 132 127 118 112 112 109 110 113
149 152 154 159 147 148 154 152 153 164 146 142 143 143 146 153 152 152 153 154 155 152 152 156 157 154 166 168 159 163 42 89 118 117 125 123 120 119 126 132 131 136 147 148 152 159 186 201 218 208 180 163 201 227 264 251 260 229 193 199 178 126 191 303 250 121 123 115 115 137 151 149 147 145 144 144 140 138 134 119 113 114 114 114 113
156 156 159 158 146 150 156 155 156 165 147 148 145 144 154 157 158 164 160 164 165 164 171 167 175 156 185 166 177 130 144 113 128 156 124 114 124 137 132 146 154 163 170 173 175 190 205 220 224 224 202 200 192 237 257 239 226 237 218 206 192 140 176 176 231 138 117 116 115 149 150 152 150 150 148 146 142 139 133 125 122 118 116 113 113
154 157 159 154 153 156 157 156 158 161 150 153 148 149 158 162 163 171 163 173 167 178 177 174 180 164 183 191 158 159 156 156 158 144 145 125 132 147 155 155 182 184 179 189 205 212 230 241 247 253 237 212 263 229 216 231 234 187 204 189 211 165 150 159 158 129 117 116 129 154 151 152 154 153 151 147 144 139 135 133 130 127 123 121 118
158 154 157 157 154 155 159 151 161 160 156 155 154 155 163 168 168 174 168 177 169 179 173 177 172 182 184 210 135 173 160 166 160 169 136 158 144 143 168 168 176 189 192 225 204 221 219 236 232 229 225 201 208 247 264 285 239 218 202 195 180 163 139 151 143 108 102 112 139 155 154 155 155 154 154 148 144 143 142 141 138 135 132 129 127
154 157 162 153 155 159 160 155 164 166 162 158 162 156 165 177 170 177 174 185 167 177 161 161 185 174 212 203 155 175 130 142 165 120 99 92 106 96 105 73 49 7 156 263 236 279 220 258 287 184 241 217 185 257 250 228 186 82 35 286 203 165 153 133 130 126 118 128 147 155 155 158 160 157 154 152 149 144 145 146 145 144 142 139 138
163 159 153 155 159 161 161 159 164 168 166 164 163 151 174 186 167 184 174 183 174 168 170 160 169 186 198 226 130 165 142 146 156 133 135 134 104 166 93 14 332 69 3 24 342 345 329 338 342 314 276 207 209 205 209 296 330 96 23 36 341 321 29 133 137 128 126 134 149 158 158 160 164 162 156 157 155 148 146 152 152 148 150 149 147
149 156 157 164 165 164 162 162 160 167 175 164 165 158 177 186 170 180 181 182 176 167 169 170 161 193 182 184 195 225 131 162 155 145 136 120 163 141 113 30 272 162 161 142 271 35 1 322 318 331 349 275 164 129 168 61 298 257 143 145 287 242 246 131 131 135 134 138 147 161 162 163 166 164 160 158 161 160 156 155 154 154 159 158 156
163 170 156 169 163 165 166 165 164 174 171 169 168 159 181 191 175 176 186 180 180 169 178 168 150 188 162 184 230 190 158 134 141 130 135 151 134 152 179 174 158 190 69 313 233 102 77 327 352 255 232 182 249 117 119 220 251 155 151 166 241 200 234 120 135 134 137 132 144 157 165 167 170 170 165 161 163 165 166 160 156 160 162 164 166
167 167 165 165 172 168 171 167 168 175 169 173 169 159 183 204 173 171 178 161 195 175 151 190 168 180 163 185 219 130 329 93 83 103 138 158 150 154 129 191 233 139 189 202 169 113 98 219 248 256 245 169 228 128 164 215 247 106 180 216 253 234 207 154 125 132 136 137 136 152 167 172 174 174 171 164 164 168 169 170 165 163 167 171 169
163 175 161 163 166 164 176 165 170 172 172 176 175 160 186 191 170 168 177 169 197 117 226 197 174 176 160 157 172 51 123 122 123 142 200 164 143 139 136 208 154 161 148 156 71 193 258 167 224 195 203 224 144 270 91 291 256 154 92 287 307 283 337 152 120 141 130 124 126 142 167 171 177 176 172 168 167 170 170 174 176 171 170 175 172
173 173 163 173 166 176 172 175 172 174 176 178 173 168 180 184 171 173 182 172 187 150 195 203 107 202 143 138 162 153 128 112 125 141 203 151 133 159 157 183 154 195 171 136 166 212 208 208 250 183 45 187 170 144 156 224 221 96 153 257 216 327 238 288 115 116 121 121 131 131 146 168 177 176 175 167 169 175 174 175 179 175 176 178 174
176 174 164 171 172 176 175 174 174 171 181 178 176 180 176 178 178 178 178 174 180 185 183 196 154 165 117 155 136 161 323 125 142 168 181 123 145 149 127 146 128 192 194 199 228 157 290 309 321 335 291 127 329 171 190 200 111 57 287 187 110 272 306 52 111 122 127 131 125 136 142 155 168 175 176 173 170 174 177 177 178 180 178 184 185
176 172 176 175 175 181 174 172 168 174 180 183 168 180 177 179 175 175 174 178 178 185 195 168 179 150 137 149 145 171 162 143 148 163 120 128 127 119 172 131 186 258 217 233 82 16 321 285 221 178 256 58 226 69 68 358 38 154 213 346 5 10 296 85 47 89 115 120 135 130 145 140 150 163 172 179 176 178 176 175 176 179 181 189 192
178 177 179 178 175 178 175 176 171 175 180 183 169 178 175 179 177 179 179 174 175 186 193 178 168 165 147 152 152 168 162 173 149 152 133 139 145 152 182 134 199 199 317 248 198 75 246 299 313 108 311 139 326 191 75 44 45 63 300 266 220 280 345 82 101 87 89 114 132 141 151 150 147 157 157 163 185 185 180 176 174 177 184 189 192
182 175 176 178 179 177 173 178 170 171 179 181 169 176 177 178 175 184 175 167 188 190 202 186 178 175 176 152 165 165 172 174 164 141 140 147 172 133 148 156 165 272 201 280 242 175 345 244 242 331 90 4 311 190 152 154 147 239 98 11 302 246 275 87 83 84 83 88 88 113 127 128 137 153 155 163 168 186 181 179 179 182 181 180 188
180 175 178 176 179 180 175 178 176 173 176 180 170 171 170 178 177 185 182 164 193 193 196 199 175 184 181 160 166 162 179 171 175 159 169 165 151 127 140 189 186 297 193 194 287 84 252 314 318 26 336 81 286 115 43 162 158 224 207 178 167 5 71 93 77 65 97 97 89 2 126 129 145 163 168 141 160 160 180 185 189 188 185 179 186
171 177 182 175 180 181 178 176 176 176 174 173 173 167 171 174 185 183 178 173 199 196 200 193 176 180 176 158 157 165 169 176 179 169 184 167 155 143 153 162 52 262 270 118 220 342 263 220 157 335 10 176 273 344 249 132 308 199 82 49 44 13 76 96 104 112 94 100 91 100 72 111 160 154 173 146 156 149 169 184 191 193 189 181 182
175 178 182 173 181 176 177 175 168 174 172 170 165 168 167 170 186 184 188 174 203 212 193 187 199 184 184 149 150 161 172 175 178 180 171 195 155 140 140 150 187 224 217 95 83 280 260 263 138 124 320 331 356 317 354 279 147 11 112 90 85 61 40 102 92 88 85 131 135 164 162 165 185 155 138 166 143 147 152 165 174 186 191 186 185
179 173 174 170 180 172 176 173 165 167 164 167 165 175 176 178 184 189 186 189 192 212 201 191 191 186 179 141 152 156 168 176 179 181 180 187 167 148 158 182 205 189 145 184 178 186 88 296 171 118 266 271 259 277 262 340 62 88 351 86 7 75 13 62 109 114 142 135 125 92 165 186 160 155 162 157 145 150 153 156 177 174 161 179 183
175 175 166 177 186 178 172 173 172 160 168 172 177 181 182 175 186 191 190 188 194 195 210 197 187 193 172 163 149 159 162 175 180 185 179 191 156 143 158 175 186 163 188 208 171 189 215 214 109 270 179 244 211 238 289 78 119 66 331 78 68 16 119 48 68 143 139 126 146 202 243 91 75 73 72 97 131 136 137 164 164 141 138 154 178
177 177 173 176 185 179 170 174 175 173 170 177 174 184 177 183 182 186 187 187 186 192 202 206 198 185 156 153 152 159 168 173 185 187 187 181 161 148 162 176 174 161 175 183 171 191 222 211 144 139 297 248 210 220 165 94 268 147 138 159 142 235 113 166 174 142 132 146 133 237 198 130 122 116 115 129 150 156 146 128 126 125 142 149 164
180 180 178 176 181 182 168 172 181 178 178 172 172 183 178 179 186 184 189 184 184 194 197 198 209 192 165 162 154 160 168 176 183 191 196 184 183 159 177 188 186 170 154 171 183 195 225 227 161 166 200 219 271 5 324 238 279 123 92 103 156 113 347 338 274 122 146 161 202 157 63 121 139 147 149 150 98 76 91 120 131 137 143 150 140
177 179 182 177 178 187 170 171 180 177 177 171 172 177 180 180 184 185 194 193 176 182 191 187 202 197 189 171 153 165 173 181 190 195 196 190 185 180 172 181 178 168 157 176 185 204 209 217 209 194 220 200 196 181 208 153 235 112 156 207 175 150 131 216 205 155 146 165 186 132 15 74 57 117 132 130 107 98 106 99 75 93 129 137 135
181 183 183 182 183 184 174 171 177 176 171 171 172 171 175 184 185 197 187 207 170 174 180 194 194 190 201 176 171 165 173 188 193 197 197 194 175 186 179 173 178 166 166 178 192 186 201 218 222 188 200 230 174 138 282 161 329 67 66 80 208 118 181 175 171 334 148 154 156 146 124 194 132 71 71 93 118 135 128 101 117 121 119 136 149
186 184 184 184 180 181 175 170 175 179 171 172 172 172 179 178 185 192 186 190 189 175 186 188 187 186 203 190 171 176 182 194 192 198 200 191 188 184 179 184 176 175 172 189 178 175 179 232 214 200 204 229 215 193 162 334 116 33 109 138 199 145 263 161 135 223 328 162 136 130 149 185 115 100 152 148 136 122 111 135 153 159 135 129 151
188 183 183 183 180 178 178 170 175 180 173 170 173 174 176 184 188 193 194 185 191 189 178 189 193 182 194 203 163 174 183 193 198 194 201 188 179 185 194 183 185 177 185 185 183 195 205 205 163 208 213 187 154 262 147 159 72 342 237 255 185 253 161 115 106 110 135 316 25 182 159 190 144 164 165 212 160 140 153 142 156 131 111 131 138
185 182 182 182 181 177 177 174 174 180 179 171 175 176 178 182 185 192 194 192 194 189 181 183 192 187 180 206 166 174 179 189 200 195 193 191 174 195 203 184 190 183 191 199 193 192 176 198 187 184 199 162 180 215 260 143 150 185 216 226 256 125 7 13 129 160 169 144 273 303 173 187 169 165 193 203 178 144 165 148 117 124 125 107 154
186 185 184 181 179 176 177 175 176 180 182 176 174 177 181 182 186 189 193 192 192 191 183 182 187 194 190 189 191 171 176 185 197 199 188 194 180 186 197 200 197 185 181 198 203 199 168 186 188 180 183 164 179 204 238 142 166 176 165 196 287 106 144 257 75 20 180 157 190 220 214 173 185 173 162 223 126 141 142 149 163 153 151 167 187
190 186 184 181 176 172 175 176 178 179 183 181 175 179 184 182 186 190 191 188 189 187 190 182 188 190 210 184 195 177 174 181 190 200 189 192 191 184 189 203 197 202 185 199 200 191 181 186 186 177 177 182 175 203 219 171 257 174 166 153 118 296 145 209 158 181 249 90 225 174 214 156 189 180 116 295 131 169 166 136 196 146 152 143 198
192 186 186 181 179 175 175 179 181 180 182 184 177 180 185 186 189 189 192 190 188 189 185 183 183 193 203 197 184 189 172 178 186 197 196 187 195 192 197 194 204 197 200 205 192 197 174 179 190 179 181 184 179 176 230 202 222 63 166 152 172 217 210 203 198 186 182 154 232 241 182 190 185 144 170 205 214 243 107 148 172 197 140 182 162